Hourly Data Report for April 24, 2016

MIRAMICHI RCS
NEW BRUNSWICK

47°00'34.000" N
65°27'54.000" W
33.00 m
8100989
71744
ACQ

Download Data

Hourly Data (April 2016)
Hourly Data Report for April 24, 2016
TIME
LST
Temp Definition
°C
Dew Point Definition
°C
Rel Hum Definition
%
Precip. Amount Definition
mm

Wind Dir Definition
10's deg

Wind Spd Definition
km/h
Visibility Definition
km
Stn Press Definition
kPa
Hmdx Definition


Wind Chill Definition


Weather Definition


00:00 4.1 -3.7 57 0.0 32 12   100.60     LegendNANA
01:00 3.1 -4.0 60 0.0 31 13   100.57     LegendNANA
02:00 1.6 -4.5 64 0.0 31 12   100.55     LegendNANA
03:00 0.6 -5.3 64 0.0 30 11   100.56     LegendNANA
04:00 -0.1 -5.8 66 0.0 30 9   100.59   -3 LegendNANA
05:00 -0.5 -6.1 66 0.0 29 12   100.61   -4 LegendNANA
06:00 -0.6 -6.6 64 0.0 30 12   100.65   -5 LegendNANA
07:00 0.1 -7.2 58 0.0 32 16   100.70     LegendNANA
08:00 0.8 -8.5 50 0.0 31 18   100.71     LegendNANA
09:00 2.2 -9.0 43 0.0 31 15   100.72     LegendNANA
10:00 3.3 -11.2 33 0.0 32 20   100.74     LegendNANA
11:00 5.0 -11.4 29 0.0 30 19   100.71     LegendNANA
12:00 6.2 -12.6 25 0.0 32 19   100.66     LegendNANA
13:00 6.9 -14.3 20 0.0 31 22   100.65     LegendNANA
14:00 6.9 -14.7 20 0.0 33 21   100.66     LegendNANA
15:00 7.0 -16.6 17 0.0 30 26   100.65     LegendNANA
16:00 7.0 -16.9 16 0.0 32 23   100.67     LegendNANA
17:00 6.5 -15.7 19 0.0 32 24   100.72     LegendNANA
18:00 6.0 -14.5 21 0.0 31 25   100.75     LegendNANA
19:00 5.0 -13.4 25 0.0 30 18   100.83     LegendNANA
20:00 3.7 -12.4 30 0.0 30 12   100.89     LegendNANA
21:00 2.0 -11.4 36 0.0 29 6   100.93     LegendNANA
22:00 -0.4 -9.0 52 0.0 28 3   100.92   -1 LegendNANA
23:00 -0.7 -8.0 58 0.0 26 5   100.89   -2 LegendNANA

Notes on Data Quality.

Legend

  • E = Estimated
  • M = Missing
  • NA = Not Available*
  • [empty] = Indicates an unobserved value
Date modified: